Forrest,

8:17 AM AWST on April 30, 2017 (GMT +0800)
Forrest

Weather History for YFRT - January, 2013

Change the Weather History Date:

Thursday, January 17, 2013

  Actual Average Record
Temperature  
Mean Temperature 82 °F -  
Max Temperature 99 °F - - ()
Min Temperature 66 °F - - ()
Cooling Degree Days 18    
Growing Degree Days 32 (Base 50)    
Moisture  
Dew Point 50 °F    
Average Humidity 34    
Maximum Humidity 68    
Minimum Humidity 4    
Precipitation  
Precipitation 0.00 in - - ()
Sea Level Pressure  
Sea Level Pressure 29.70 in    
Wind  
Wind Speed 16 mph ()    
Max Wind Speed 41 mph    
Max Gust Speed 52 mph    
T = Trace of Precipitation, MM = Missing Value Source: Averaged Metar Reports

Daily Weather History Graph

Daily Weather History Graph

Search for Another Location

Airport or City:

Trip Planner

Search our weather history database for the weather conditions in past years. The results will help you decide how hot, cold, wet, or windy it might be!

Date:

Astronomy

Jan. 17, 2013 Rise Set
Actual Time 4:40 AM AWST 6:33 PM AWST
Civil Twilight 4:13 AM AWST 7:00 PM AWST
Nautical Twilight 3:41 AM AWST 7:33 PM AWST
Astronomical Twilight 3:06 AM AWST 8:07 PM AWST
Moon 10:08 AM AWST (1/17) 9:57 PM AWST (1/17)
Length of Visible Light 14h 46m
Length of Day
13h 53m
Waxing Crescent, 32% of the Moon is Illuminated
Jan 17
Waxing Crescent
Jan 19
First Quarter
Jan 27
Full
Feb 3
Last Quarter
Feb 10
New

Hourly Weather History & Observations

Time (AWST) Temp. Heat Index Dew Point Humidity Pressure Visibility Wind Dir Wind Speed Gust Speed Precip Events Conditions
12:00 AM 82 °F - 44 °F 16% 29.61 in - ENE 10.4 mph - -  
12:00 AM 82.4 °F - 42.8 °F 25% 29.62 in - ENE 10.4 mph - N/A   Unknown
1:00 AM 80.6 °F - 42.8 °F 26% 29.59 in - NE 9.2 mph - N/A   Unknown
2:00 AM 80 °F - 41 °F 15% 29.57 in - ENE 9.2 mph - -  
2:00 AM 80.6 °F - 41.0 °F 24% 29.59 in - ENE 9.2 mph - N/A   Unknown
3:00 AM 78 °F - 42 °F 18% 29.57 in - ENE 9.2 mph - -  
3:00 AM 78.8 °F - 42.8 °F 28% 29.56 in - ENE 9.2 mph - N/A   Unknown
4:00 AM 77.0 °F - 41.0 °F 28% 29.59 in - NE 5.8 mph - N/A   Unknown
5:00 AM 76 °F - 42 °F 19% 29.60 in - NNE 6.9 mph - -  
5:00 AM 75.2 °F - 42.8 °F 31% 29.59 in - NNE 6.9 mph - N/A   Unknown
6:00 AM 81 °F - 42 °F 15% 29.61 in - NNE 8.1 mph - -  
6:00 AM 80.6 °F - 42.8 °F 26% 29.62 in - NNE 8.1 mph - N/A   Unknown
6:59 AM 89.6 °F - 35.6 °F 15% 29.62 in - North 10.4 mph - N/A   Unknown
7:00 AM 89.6 °F - 37.4 °F 16% 29.62 in - North 10.4 mph - N/A   Unknown
8:00 AM 99 °F - 30 °F 4% 29.62 in - NNW 16.1 mph - -  
8:00 AM 98.6 °F - 30.2 °F 9% 29.62 in - NNW 16.1 mph - N/A   Unknown
8:26 AM 96.8 °F - 28.4 °F 9% 29.68 in - WNW 23.0 mph - N/A   Unknown
8:27 AM 95.0 °F - 35.6 °F 12% 29.68 in - WNW 25.3 mph 51.8 mph N/A   Unknown
8:28 AM 93.2 °F - 35.6 °F 13% 29.68 in - West 41.4 mph - N/A   Unknown
8:29 AM 93.2 °F - 35.6 °F 13% 29.68 in - West 39.1 mph 51.8 mph N/A   Unknown
8:35 AM 93.2 °F - 37.4 °F 14% 29.68 in - West 23.0 mph 51.8 mph N/A   Unknown
8:38 AM 93.2 °F - 39.2 °F 15% 29.68 in - West 21.9 mph 39.1 mph N/A   Unknown
9:00 AM 94 °F - 41 °F 8% 29.68 in - WSW 18.4 mph - -  
9:00 AM 93.2 °F - 41.0 °F 16% 29.68 in - WSW 18.4 mph - N/A   Unknown
9:58 AM 95.0 °F - 46.4 °F 19% 29.65 in - SW 27.6 mph - N/A   Unknown
10:00 AM 95.0 °F - 48.2 °F 20% 29.65 in - SW 27.6 mph - N/A   Unknown
10:29 AM 96.8 °F 95.8 °F 57.2 °F 27% 29.65 in - SW 25.3 mph 36.8 mph N/A   Unknown
10:44 AM 96.8 °F 96.2 °F 59.0 °F 28% 29.65 in - SSW 28.8 mph 49.5 mph N/A   Unknown
11:00 AM 96 °F - 59 °F 20% 29.65 in - SSW 29.9 mph - -  
11:00 AM 95.0 °F 94.4 °F 59.0 °F 30% 29.65 in - SSW 29.9 mph 41.4 mph N/A   Unknown
12:00 PM 94 °F - 62 °F 25% 29.65 in - South 27.6 mph - -  
12:00 PM 93.2 °F 94.1 °F 62.6 °F 36% 29.65 in - South 27.6 mph - N/A   Unknown
12:26 PM 91.4 °F 92.1 °F 62.6 °F 38% 29.65 in - South 23.0 mph 34.5 mph N/A   Unknown
1:00 PM 89.6 °F 90.1 °F 62.6 °F 40% 29.68 in - South 24.2 mph - N/A   Unknown
2:00 PM 85 °F - 62 °F 35% 29.66 in - South 23.0 mph - -  
2:00 PM 84.2 °F 84.4 °F 60.8 °F 45% 29.68 in - South 23.0 mph - N/A   Unknown
2:13 PM 84.2 °F 84.4 °F 60.8 °F 45% 29.68 in - South 21.9 mph 33.4 mph N/A   Unknown
3:00 PM 82 °F - 61 °F 38% 29.68 in - South 24.2 mph - -  
3:00 PM 82.4 °F 82.9 °F 60.8 °F 48% 29.68 in - South 24.2 mph - N/A   Unknown
3:50 PM 77.0 °F - 59.0 °F 54% 29.71 in - South 27.6 mph 39.1 mph N/A   Unknown
4:00 PM 77.0 °F - 59.0 °F 54% 29.71 in - South 29.9 mph - N/A   Unknown
4:05 PM 77.0 °F - 59.0 °F 54% 29.74 in - South 28.8 mph 40.3 mph N/A   Unknown
5:00 PM 74 °F - 58 °F 48% 29.74 in - South 25.3 mph - -  
5:00 PM 75.2 °F - 59.0 °F 57% 29.74 in - South 25.3 mph - N/A   Unknown
5:03 PM 73.4 °F - 59.0 °F 61% 29.74 in - South 25.3 mph 36.8 mph N/A   Unknown
5:46 PM 73.4 °F - 57.2 °F 57% 29.80 in - South 26.5 mph - N/A   Unknown
6:00 PM 72 °F - 58 °F 51% 29.81 in - South 24.2 mph - -  
6:00 PM 71.6 °F - 57.2 °F 60% 29.83 in - South 24.2 mph - N/A   Unknown
7:00 PM 71.6 °F - 59.0 °F 64% 29.86 in - South 24.2 mph - N/A   Unknown
7:02 PM 71.6 °F - 59.0 °F 64% 29.86 in - South 24.2 mph 36.8 mph N/A   Unknown
8:00 PM 68 °F - 57 °F 60% 29.89 in - South 25.3 mph - -  
8:00 PM 68.0 °F - 57.2 °F 68% 29.89 in - South 25.3 mph 36.8 mph N/A   Unknown
9:00 PM 68 °F - 53 °F 49% 29.91 in - South 20.7 mph - -  
9:00 PM 68.0 °F - 53.6 °F 60% 29.92 in - South 20.7 mph 32.2 mph N/A   Unknown
10:00 PM 66.2 °F - 51.8 °F 60% 29.92 in - South 19.6 mph - N/A   Unknown
11:00 PM 66 °F - 50 °F 46% 29.90 in - South 20.7 mph - -  
11:00 PM 66.2 °F - 50.0 °F 56% 29.92 in - South 20.7 mph - N/A   Unknown